| time (UTC) | temp F | wind direction | speed MPH | gust MPH | rain 1hr in | rain 24hr in | rain mn in | humidity % | barometer mb |
| 20260506035426 | 56 | 314 | 3.0 | 8.0 | 0.00 | 0.00 | 0.00 | 87 | 1011.2 |
| 20260506034928 | 56 | 291 | 4.0 | 13.0 | 0.00 | 0.00 | 0.00 | 87 | 1011.2 |
| 20260506034433 | 56 | 281 | 4.0 | 13.0 | 0.00 | 0.00 | 0.00 | 87 | 1011.2 |
| 20260506033926 | 56 | 286 | 4.0 | 9.0 | 0.00 | 0.00 | 0.00 | 87 | 1011.0 |
| 20260506033425 | 56 | 287 | 3.0 | 10.0 | 0.00 | 0.00 | 0.00 | 86 | 1011.0 |
| 20260506032926 | 56 | 289 | 4.0 | 10.0 | 0.00 | 0.00 | 0.00 | 86 | 1011.0 |
| 20260506032426 | 56 | 295 | 5.0 | 11.0 | 0.00 | 0.00 | 0.00 | 85 | 1010.7 |
| 20260506031924 | 56 | 275 | 5.0 | 11.0 | 0.00 | 0.00 | 0.00 | 85 | 1010.7 |
| 20260506031422 | 56 | 286 | 5.0 | 15.0 | 0.00 | 0.00 | 0.00 | 85 | 1010.7 |
| 20260506030923 | 56 | 292 | 5.0 | 15.0 | 0.00 | 0.00 | 0.00 | 85 | 1010.7 |
| 20260506030422 | 57 | 290 | 4.0 | 10.0 | 0.00 | 0.00 | 0.00 | 84 | 1010.7 |
| 20260506025919 | 57 | 313 | 4.0 | 8.0 | 0.00 | 0.00 | 0.00 | 84 | 1010.7 |
| 20260506025420 | 57 | 293 | 3.0 | 8.0 | 0.00 | 0.00 | 0.00 | 84 | 1010.4 |
| 20260506024924 | 57 | 284 | 3.0 | 6.0 | 0.00 | 0.00 | 0.00 | 83 | 1010.4 |
| 20260506024423 | 57 | 302 | 3.0 | 6.0 | 0.00 | 0.00 | 0.00 | 83 | 1010.4 |
| 20260506023916 | 57 | 286 | 4.0 | 9.0 | 0.00 | 0.00 | 0.00 | 83 | 1010.3 |
| 20260506023412 | 57 | 263 | 4.0 | 10.0 | 0.00 | 0.00 | 0.00 | 82 | 1010.3 |
| 20260506022910 | 57 | 288 | 4.0 | 12.0 | 0.00 | 0.00 | 0.00 | 82 | 1010.2 |
| 20260506022405 | 58 | 273 | 4.0 | 12.0 | 0.00 | 0.00 | 0.00 | 82 | 1010.2 |
| 20260506021905 | 58 | 279 | 3.0 | 10.0 | 0.00 | 0.00 | 0.00 | 81 | 1010.2 |
| 20260506021405 | 58 | 294 | 4.0 | 10.0 | 0.00 | 0.00 | 0.00 | 81 | 1010.1 |
| 20260506020901 | 58 | 337 | 5.0 | 9.0 | 0.00 | 0.00 | 0.00 | 81 | 1010.1 |
| 20260506020358 | 58 | 280 | 5.0 | 9.0 | 0.00 | 0.00 | 0.00 | 80 | 1010.1 |
| 20260506015859 | 58 | 335 | 5.0 | 12.0 | 0.00 | 0.00 | 0.00 | 79 | 1010.1 |
| 20260506015358 | 58 | 316 | 5.0 | 12.0 | 0.00 | 0.00 | 0.00 | 78 | 1010.1 |
| 20260506014903 | 59 | 304 | 5.0 | 11.0 | 0.00 | 0.00 | 0.00 | 77 | 1010.1 |
| 20260506014404 | 59 | 292 | 4.0 | 10.0 | 0.00 | 0.00 | 0.00 | 76 | 1010.1 |
| 20260506013859 | 60 | 305 | 4.0 | 12.0 | 0.00 | 0.00 | 0.00 | 76 | 1010.1 |
| 20260506013357 | 60 | 259 | 4.0 | 12.0 | 0.00 | 0.00 | 0.00 | 75 | 1010.1 |
| 20260506012355 | 60 | 269 | 6.0 | 16.0 | 0.00 | 0.00 | 0.00 | 74 | 1010.1 |
| 20260506011856 | 60 | 298 | 5.0 | 13.0 | 0.00 | 0.00 | 0.00 | 73 | 1010.1 |
| 20260506011356 | 61 | 289 | 4.0 | 13.0 | 0.00 | 0.00 | 0.00 | 71 | 1010.1 |
| 20260506010855 | 62 | 311 | 4.0 | 9.0 | 0.00 | 0.00 | 0.00 | 69 | 1010.1 |
| 20260506005852 | 62 | 318 | 4.0 | 11.0 | 0.00 | 0.00 | 0.00 | 70 | 1010.1 |
| 20260506004342 | 62 | 324 | 5.0 | 10.0 | 0.00 | 0.00 | 0.00 | 70 | 1010.1 |
| 20260506003841 | 62 | 274 | 5.0 | 10.0 | 0.00 | 0.00 | 0.00 | 70 | 1010.1 |
| 20260506003339 | 62 | 240 | 5.0 | 12.0 | 0.00 | 0.00 | 0.00 | 70 | 1010.1 |
| 20260506002840 | 63 | 302 | 6.0 | 14.0 | 0.00 | 0.00 | 0.00 | 69 | 1009.9 |
| 20260506002336 | 63 | 314 | 5.0 | 14.0 | 0.00 | 0.00 | 0.00 | 67 | 1009.9 |
| 20260506001835 | 64 | 273 | 4.0 | 11.0 | 0.00 | 0.00 | 0.00 | 67 | 1009.9 |
| 20260506001334 | 64 | 301 | 5.0 | 11.0 | 0.00 | 0.00 | 0.00 | 67 | 1009.9 |
| 20260506000833 | 64 | 299 | 5.0 | 10.0 | 0.00 | 0.00 | 0.00 | 66 | 1009.9 |
| 20260506000331 | 64 | 304 | 5.0 | 12.0 | 0.00 | 0.00 | 0.00 | 67 | 1009.9 |
| 20260505235330 | 64 | 309 | 5.0 | 13.0 | 0.00 | 0.00 | 0.00 | 63 | 1010.0 |
| 20260505234324 | 65 | 300 | 5.0 | 12.0 | 0.00 | 0.00 | 0.00 | 66 | 1010.2 |
| 20260505233324 | 66 | 273 | 5.0 | 11.0 | 0.00 | 0.00 | 0.00 | 66 | 1010.2 |
| 20260505232320 | 66 | 322 | 5.0 | 11.0 | 0.00 | 0.00 | 0.00 | 65 | 1010.0 |
| 20260505231819 | 66 | 290 | 5.0 | 11.0 | 0.00 | 0.00 | 0.00 | 67 | 1010.0 |
| 20260505230819 | 65 | 325 | 6.0 | 13.0 | 0.00 | 0.00 | 0.00 | 66 | 1010.2 |
| 20260505230324 | 66 | 313 | 6.0 | 11.0 | 0.00 | 0.00 | 0.00 | 66 | 1010.2 |
| 20260505225819 | 66 | 324 | 5.0 | 12.0 | 0.00 | 0.00 | 0.00 | 66 | 1010.1 |
| 20260505225316 | 66 | 346 | 6.0 | 14.0 | 0.00 | 0.00 | 0.00 | 66 | 1010.1 |
| 20260505224816 | 66 | 302 | 6.0 | 14.0 | 0.00 | 0.00 | 0.00 | 65 | 1010.1 |
| 20260505224314 | 66 | 311 | 5.0 | 11.0 | 0.00 | 0.00 | 0.00 | 65 | 1010.2 |
| 20260505223815 | 66 | 336 | 6.0 | 11.0 | 0.00 | 0.00 | 0.00 | 65 | 1010.2 |
| 20260505223310 | 66 | 323 | 6.0 | 13.0 | 0.00 | 0.00 | 0.00 | 64 | 1010.2 |
| 20260505222308 | 66 | 313 | 5.0 | 10.0 | 0.00 | 0.00 | 0.00 | 64 | 1010.3 |
| 20260505221809 | 66 | 313 | 5.0 | 12.0 | 0.00 | 0.00 | 0.00 | 63 | 1010.3 |
| 20260505221311 | 67 | 277 | 6.0 | 13.0 | 0.00 | 0.00 | 0.00 | 63 | 1010.3 |
| 20260505220812 | 67 | 299 | 6.0 | 14.0 | 0.00 | 0.00 | 0.00 | 62 | 1010.3 |
| 20260505220307 | 67 | 329 | 5.0 | 14.0 | 0.00 | 0.00 | 0.00 | 62 | 1010.3 |
| 20260505215804 | 67 | 332 | 5.0 | 11.0 | 0.00 | 0.00 | 0.00 | 62 | 1010.6 |
| 20260505215305 | 66 | 11 | 6.0 | 11.0 | 0.00 | 0.00 | 0.00 | 64 | 1010.6 |
| 20260505214801 | 65 | 323 | 6.0 | 11.0 | 0.00 | 0.00 | 0.00 | 64 | 1010.6 |
| 20260505214255 | 65 | 306 | 6.0 | 16.0 | 0.00 | 0.00 | 0.00 | 66 | 1010.8 |
| 20260505213756 | 65 | 332 | 6.0 | 16.0 | 0.00 | 0.00 | 0.00 | 64 | 1010.7 |
| 20260505213258 | 65 | 277 | 7.0 | 14.0 | 0.00 | 0.00 | 0.00 | 66 | 1010.8 |
| 20260505212751 | 65 | 291 | 6.0 | 14.0 | 0.00 | 0.00 | 0.00 | 64 | 1010.8 |
| 20260505212253 | 65 | 309 | 5.0 | 11.0 | 0.00 | 0.00 | 0.00 | 63 | 1010.8 |
| 20260505211751 | 65 | 323 | 5.0 | 11.0 | 0.00 | 0.00 | 0.00 | 65 | 1010.8 |
| 20260505211255 | 65 | 319 | 5.0 | 12.0 | 0.00 | 0.00 | 0.00 | 63 | 1010.7 |
| 20260505210755 | 65 | 303 | 6.0 | 12.0 | 0.00 | 0.00 | 0.00 | 63 | 1010.7 |
| 20260505210249 | 64 | 266 | 6.0 | 12.0 | 0.00 | 0.00 | 0.00 | 63 | 1010.7 |
| 20260505205749 | 65 | 306 | 5.0 | 11.0 | 0.00 | 0.00 | 0.00 | 61 | 1010.8 |
| 20260505205248 | 65 | 328 | 5.0 | 12.0 | 0.00 | 0.00 | 0.00 | 60 | 1010.8 |
| 20260505204747 | 65 | 311 | 6.0 | 13.0 | 0.00 | 0.00 | 0.00 | 60 | 1010.8 |
| 20260505204246 | 65 | 317 | 6.0 | 13.0 | 0.00 | 0.00 | 0.00 | 60 | 1010.8 |
| 20260505203744 | 65 | 321 | 7.0 | 14.0 | 0.00 | 0.00 | 0.00 | 62 | 1010.7 |
| 20260505203245 | 64 | 262 | 6.0 | 14.0 | 0.00 | 0.00 | 0.00 | 62 | 1010.7 |
| 20260505202743 | 64 | 258 | 5.0 | 12.0 | 0.00 | 0.00 | 0.00 | 61 | 1010.7 |
| 20260505201738 | 64 | 303 | 5.0 | 11.0 | 0.00 | 0.00 | 0.00 | 62 | 1010.7 |
| 20260505201235 | 64 | 277 | 5.0 | 11.0 | 0.00 | 0.00 | 0.00 | 64 | 1010.7 |
| 20260505200741 | 64 | 309 | 5.0 | 12.0 | 0.00 | 0.00 | 0.00 | 62 | 1010.7 |
| 20260505200242 | 64 | 313 | 6.0 | 14.0 | 0.00 | 0.00 | 0.00 | 64 | 1010.7 |
| 20260505195734 | 63 | 321 | 7.0 | 14.0 | 0.00 | 0.00 | 0.00 | 61 | 1010.7 |
| 20260505194228 | 64 | 322 | 6.0 | 14.0 | 0.00 | 0.00 | 0.00 | 59 | 1010.6 |
| 20260505193725 | 66 | 265 | 4.0 | 14.0 | 0.00 | 0.00 | 0.00 | 58 | 1010.7 |
| 20260505193227 | 66 | 347 | 4.0 | 11.0 | 0.00 | 0.00 | 0.00 | 60 | 1010.7 |
| 20260505192224 | 66 | 314 | 4.0 | 8.0 | 0.00 | 0.00 | 0.00 | 57 | 1010.7 |
| 20260505191721 | 66 | 11 | 4.0 | 9.0 | 0.00 | 0.00 | 0.00 | 55 | 1010.7 |
| 20260505191221 | 66 | 313 | 4.0 | 9.0 | 0.00 | 0.00 | 0.00 | 57 | 1010.7 |
| 20260505190723 | 67 | 316 | 5.0 | 9.0 | 0.00 | 0.00 | 0.00 | 55 | 1010.7 |
| 20260505185716 | 66 | 355 | 4.0 | 9.0 | 0.00 | 0.00 | 0.00 | 54 | 1010.5 |
| 20260505185212 | 66 | 316 | 5.0 | 9.0 | 0.00 | 0.00 | 0.00 | 55 | 1010.5 |
| 20260505184711 | 66 | 322 | 4.0 | 8.0 | 0.00 | 0.00 | 0.00 | 55 | 1010.5 |
| 20260505184209 | 66 | 336 | 4.0 | 8.0 | 0.00 | 0.00 | 0.00 | 54 | 1010.6 |
| 20260505183705 | 67 | 299 | 4.0 | 9.0 | 0.00 | 0.00 | 0.00 | 53 | 1010.6 |
| 20260505182701 | 67 | 312 | 4.0 | 10.0 | 0.00 | 0.00 | 0.00 | 54 | 1010.6 |
| 20260505181651 | 67 | 318 | 3.0 | 8.0 | 0.00 | 0.00 | 0.00 | 55 | 1010.6 |
| 20260505181151 | 67 | 20 | 2.0 | 7.0 | 0.00 | 0.00 | 0.00 | 58 | 1010.4 |
| 20260505180649 | 65 | 293 | 3.0 | 9.0 | 0.00 | 0.00 | 0.00 | 59 | 1010.4 |
| 20260505180150 | 65 | 311 | 4.0 | 9.0 | 0.00 | 0.00 | 0.00 | 58 | 1010.4 |
| 20260505175649 | 65 | 295 | 4.0 | 7.0 | 0.00 | 0.00 | 0.00 | 60 | 1010.3 |
| 20260505175144 | 64 | 320 | 3.0 | 8.0 | 0.00 | 0.00 | 0.00 | 61 | 1010.2 |
| 20260505174643 | 64 | 327 | 4.0 | 11.0 | 0.00 | 0.00 | 0.00 | 61 | 1010.2 |
| 20260505174139 | 64 | 298 | 5.0 | 11.0 | 0.00 | 0.00 | 0.00 | 61 | 1010.2 |
| 20260505173636 | 65 | 259 | 4.0 | 10.0 | 0.00 | 0.00 | 0.00 | 60 | 1010.3 |
| 20260505173134 | 65 | 279 | 3.0 | 8.0 | 0.00 | 0.00 | 0.00 | 59 | 1010.3 |
| 20260505172635 | 65 | 322 | 2.0 | 7.0 | 0.00 | 0.00 | 0.00 | 63 | 1010.3 |
| 20260505172130 | 63 | 292 | 3.0 | 8.0 | 0.00 | 0.00 | 0.00 | 63 | 1010.2 |
| 20260505171627 | 62 | 290 | 4.0 | 8.0 | 0.00 | 0.00 | 0.00 | 63 | 1010.2 |
| 20260505170128 | 61 | 290 | 4.0 | 9.0 | 0.00 | 0.00 | 0.00 | 66 | 1010.2 |
| 20260505165626 | 62 | 275 | 3.0 | 7.0 | 0.00 | 0.00 | 0.00 | 65 | 1010.3 |
| 20260505165129 | 62 | 315 | 3.0 | 7.0 | 0.00 | 0.00 | 0.00 | 67 | 1010.3 |
| 20260505164624 | 62 | 333 | 3.0 | 7.0 | 0.00 | 0.00 | 0.00 | 68 | 1010.3 |
| 20260505164120 | 61 | 323 | 4.0 | 7.0 | 0.00 | 0.00 | 0.00 | 69 | 1010.3 |
| 20260505163618 | 60 | 296 | 3.0 | 8.0 | 0.00 | 0.00 | 0.00 | 71 | 1010.3 |
| 20260505163118 | 60 | 276 | 2.0 | 8.0 | 0.00 | 0.00 | 0.00 | 72 | 1010.3 |
| 20260505162615 | 60 | 5 | 3.0 | 6.0 | 0.00 | 0.00 | 0.00 | 74 | 1010.2 |
| 20260505162114 | 59 | 317 | 2.0 | 5.0 | 0.00 | 0.00 | 0.00 | 76 | 1010.2 |
| 20260505161615 | 59 | 317 | 2.0 | 5.0 | 0.00 | 0.00 | 0.00 | 78 | 1010.2 |
| 20260505161111 | 58 | 317 | 2.0 | 5.0 | 0.00 | 0.00 | 0.00 | 79 | 1010.1 |
| 20260505160607 | 58 | 317 | 2.0 | 5.0 | 0.00 | 0.00 | 0.00 | 78 | 1010.1 |
| 20260505160110 | 58 | 317 | 2.0 | 5.0 | 0.00 | 0.00 | 0.00 | 78 | 1010.1 |
| 20260505153050 | 58 | 315 | 1.0 | 4.0 | 0.00 | 0.00 | 0.00 | 85 | 1009.9 |
| 20260505152547 | 57 | 308 | 0.0 | 3.0 | 0.00 | 0.00 | 0.00 | 87 | 1009.7 |
| 20260505152046 | 57 | 308 | 0.0 | 3.0 | 0.00 | 0.00 | 0.00 | 87 | 1009.7 |
| 20260505151539 | 56 | 301 | 0.0 | 3.0 | 0.00 | 0.00 | 0.00 | 89 | 1009.7 |
| 20260505151036 | 56 | 298 | 0.0 | 3.0 | 0.00 | 0.00 | 0.00 | 91 | 1009.8 |
| 20260505150530 | 55 | 298 | 1.0 | 3.0 | 0.00 | 0.00 | 0.00 | 93 | 1009.7 |
| 20260505140515 | 47 | 296 | 0.0 | 0.0 | 0.00 | 0.00 | 0.00 | 94 | 1009.5 |
| 20260505124949 | 48 | 296 | 0.0 | 0.0 | 0.00 | 0.00 | 0.00 | 93 | 1009.0 |
| 20260505124445 | 48 | 296 | 0.0 | 0.0 | 0.00 | 0.00 | 0.00 | 93 | 1009.0 |
| 20260505123942 | 48 | 296 | 0.0 | 0.0 | 0.00 | 0.00 | 0.00 | 93 | 1009.1 |
| 20260505123437 | 48 | 296 | 0.0 | 0.0 | 0.00 | 0.00 | 0.00 | 93 | 1009.2 |
| 20260505122940 | 49 | 296 | 0.0 | 0.0 | 0.00 | 0.00 | 0.00 | 93 | 1009.2 |
| 20260505122434 | 49 | 296 | 0.0 | 0.0 | 0.00 | 0.00 | 0.00 | 94 | 1009.3 |
| 20260505120926 | 49 | 296 | 0.0 | 0.0 | 0.00 | 0.00 | 0.00 | 94 | 1009.3 |
| 20260505120424 | 49 | 296 | 0.0 | 0.0 | 0.00 | 0.00 | 0.00 | 94 | 1009.3 |
| 20260505115930 | 49 | 296 | 0.0 | 0.0 | 0.00 | 0.00 | 0.00 | 94 | 1009.3 |
| 20260505115426 | 49 | 296 | 0.0 | 0.0 | 0.00 | 0.00 | 0.00 | 94 | 1009.3 |
| 20260505114418 | 49 | 296 | 0.0 | 0.0 | 0.00 | 0.00 | 0.00 | 94 | 1009.3 |
| 20260505113918 | 49 | 296 | 0.0 | 0.0 | 0.00 | 0.00 | 0.00 | 94 | 1009.4 |
| 20260505113418 | 49 | 296 | 0.0 | 0.0 | 0.00 | 0.00 | 0.00 | 94 | 1009.4 |
| 20260505112912 | 49 | 296 | 0.0 | 0.0 | 0.00 | 0.00 | 0.00 | 94 | 1009.4 |
| 20260505111404 | 48 | 296 | 0.0 | 0.0 | 0.00 | 0.00 | 0.00 | 94 | 1009.4 |
| 20260505110403 | 48 | 296 | 0.0 | 0.0 | 0.00 | 0.00 | 0.00 | 93 | 1009.3 |
| 20260505101842 | 49 | 296 | 0.0 | 0.0 | 0.00 | 0.00 | 0.00 | 92 | 1009.1 |
| 20260505100829 | 49 | 296 | 0.0 | 0.0 | 0.00 | 0.00 | 0.00 | 92 | 1009.3 |
| 20260505100327 | 49 | 296 | 0.0 | 0.0 | 0.00 | 0.00 | 0.00 | 92 | 1009.3 |
| 20260505095824 | 50 | 296 | 0.0 | 0.0 | 0.00 | 0.00 | 0.00 | 92 | 1009.4 |
| 20260505095321 | 50 | 296 | 0.0 | 0.0 | 0.00 | 0.00 | 0.00 | 92 | 1009.4 |
| 20260505094820 | 50 | 296 | 0.0 | 0.0 | 0.00 | 0.00 | 0.00 | 92 | 1009.4 |
| 20260505094315 | 50 | 296 | 0.0 | 0.0 | 0.00 | 0.00 | 0.00 | 92 | 1009.6 |
| 20260505093811 | 50 | 296 | 0.0 | 0.0 | 0.00 | 0.00 | 0.00 | 92 | 1009.6 |
| 20260505093308 | 51 | 296 | 0.0 | 0.0 | 0.00 | 0.00 | 0.00 | 92 | 1009.6 |
| 20260505092808 | 51 | 296 | 0.0 | 0.0 | 0.00 | 0.00 | 0.00 | 92 | 1009.6 |
| 20260505091302 | 51 | 296 | 0.0 | 1.0 | 0.00 | 0.00 | 0.00 | 92 | 1009.9 |
| 20260505090301 | 51 | 296 | 0.0 | 0.0 | 0.00 | 0.00 | 0.00 | 92 | 1009.9 |
| 20260505085253 | 51 | 296 | 0.0 | 0.0 | 0.00 | 0.00 | 0.00 | 91 | 1009.8 |
| 20260505084751 | 51 | 296 | 0.0 | 0.0 | 0.00 | 0.00 | 0.00 | 91 | 1009.8 |
| 20260505084246 | 51 | 296 | 0.0 | 0.0 | 0.00 | 0.00 | 0.00 | 90 | 1009.9 |
| 20260505083741 | 51 | 296 | 0.0 | 0.0 | 0.00 | 0.00 | 0.00 | 91 | 1009.9 |
| 20260505082741 | 51 | 296 | 0.0 | 0.0 | 0.00 | 0.00 | 0.00 | 91 | 1010.1 |
| 20260505082238 | 52 | 296 | 0.0 | 0.0 | 0.00 | 0.00 | 0.00 | 91 | 1010.1 |
| 20260505081229 | 52 | 296 | 0.0 | 0.0 | 0.00 | 0.00 | 0.00 | 91 | 1010.1 |
| 20260505080725 | 52 | 296 | 0.0 | 0.0 | 0.00 | 0.00 | 0.00 | 91 | 1010.1 |
| 20260505080227 | 52 | 296 | 0.0 | 0.0 | 0.00 | 0.00 | 0.00 | 91 | 1010.1 |
| 20260505075721 | 52 | 296 | 0.0 | 0.0 | 0.00 | 0.00 | 0.00 | 91 | 1010.1 |
| 20260505075216 | 52 | 296 | 0.0 | 0.0 | 0.00 | 0.00 | 0.00 | 91 | 1010.1 |
| 20260505074717 | 52 | 296 | 0.0 | 0.0 | 0.00 | 0.00 | 0.00 | 90 | 1010.1 |
| 20260505074216 | 52 | 296 | 0.0 | 0.0 | 0.00 | 0.00 | 0.00 | 90 | 1010.1 |
| 20260505073712 | 52 | 296 | 0.0 | 0.0 | 0.00 | 0.00 | 0.00 | 90 | 1010.1 |
| 20260505073213 | 52 | 296 | 0.0 | 0.0 | 0.00 | 0.00 | 0.00 | 90 | 1010.1 |
| 20260505072705 | 52 | 296 | 0.0 | 0.0 | 0.00 | 0.00 | 0.00 | 90 | 1010.1 |
| 20260505072204 | 52 | 296 | 0.0 | 0.0 | 0.00 | 0.00 | 0.00 | 89 | 1010.1 |
| 20260505071701 | 52 | 296 | 0.0 | 0.0 | 0.00 | 0.00 | 0.00 | 89 | 1010.1 |
| 20260505071200 | 53 | 296 | 0.0 | 0.0 | 0.00 | 0.00 | 0.00 | 89 | 1010.1 |
| 20260505070657 | 53 | 296 | 0.0 | 0.0 | 0.00 | 0.00 | 0.00 | 89 | 1010.1 |
| 20260505065657 | 53 | 296 | 0.0 | 0.0 | 0.00 | 0.00 | 0.00 | 89 | 1010.0 |
| 20260505065150 | 53 | 296 | 0.0 | 1.0 | 0.00 | 0.00 | 0.00 | 88 | 1010.0 |
| 20260505064652 | 53 | 296 | 0.0 | 1.0 | 0.00 | 0.00 | 0.00 | 88 | 1010.0 |
| 20260505064150 | 53 | 296 | 0.0 | 0.0 | 0.00 | 0.00 | 0.00 | 88 | 1010.0 |
| 20260505063646 | 53 | 296 | 0.0 | 0.0 | 0.00 | 0.00 | 0.00 | 88 | 1010.0 |
| 20260505063144 | 53 | 296 | 0.0 | 0.0 | 0.00 | 0.00 | 0.00 | 88 | 1010.0 |
| 20260505062641 | 53 | 296 | 0.0 | 0.0 | 0.00 | 0.00 | 0.00 | 88 | 1010.0 |
| 20260505061640 | 53 | 296 | 0.0 | 1.0 | 0.00 | 0.00 | 0.00 | 88 | 1010.0 |
| 20260505061135 | 53 | 296 | 0.0 | 1.0 | 0.00 | 0.00 | 0.00 | 88 | 1010.0 |
| 20260505060632 | 53 | 296 | 0.0 | 0.0 | 0.00 | 0.00 | 0.00 | 88 | 1010.0 |
| 20260505060127 | 53 | 296 | 0.0 | 0.0 | 0.00 | 0.00 | 0.00 | 87 | 1010.0 |
| 20260505055622 | 53 | 296 | 0.0 | 0.0 | 0.00 | 0.00 | 0.00 | 87 | 1010.0 |
| 20260505055120 | 53 | 296 | 0.0 | 0.0 | 0.00 | 0.00 | 0.00 | 86 | 1010.0 |
| 20260505054620 | 53 | 296 | 0.0 | 0.0 | 0.00 | 0.00 | 0.00 | 86 | 1010.0 |
| 20260505053620 | 53 | 296 | 0.0 | 0.0 | 0.00 | 0.00 | 0.00 | 86 | 1010.1 |
| 20260505053118 | 54 | 296 | 0.0 | 0.0 | 0.00 | 0.00 | 0.00 | 85 | 1010.1 |
| 20260505052616 | 54 | 296 | 0.0 | 0.0 | 0.00 | 0.00 | 0.00 | 85 | 1010.1 |
| 20260505052114 | 54 | 296 | 0.0 | 0.0 | 0.00 | 0.00 | 0.00 | 85 | 1010.1 |
| 20260505051608 | 54 | 296 | 0.0 | 0.0 | 0.00 | 0.00 | 0.00 | 85 | 1010.1 |
| 20260505051106 | 54 | 296 | 0.0 | 0.0 | 0.00 | 0.00 | 0.00 | 85 | 1010.1 |
| 20260505050600 | 54 | 296 | 0.0 | 0.0 | 0.00 | 0.00 | 0.00 | 86 | 1010.1 |
| 20260505041552 | 53 | 296 | 0.0 | 0.0 | 0.00 | 0.00 | 0.00 | 84 | 1010.0 |
| 20260505041048 | 54 | 296 | 0.0 | 0.0 | 0.00 | 0.00 | 0.00 | 84 | 1009.7 |
| 20260505040544 | 54 | 296 | 0.0 | 0.0 | 0.00 | 0.00 | 0.00 | 84 | 1009.7 |
| 20260505040041 | 54 | 296 | 0.0 | 0.0 | 0.00 | 0.00 | 0.00 | 84 | 1009.7 |